Simultaneous Nadir Overpasses (SNOs) Predictions

Prediction of SNOs between AQUA and METOP-B Satellite Orbit:

Table of predicted SNOs for the next 14.0 days since TLE Epoch: 2/8/2019
Index Date (AQUA) Time (AQUA) Lat,Lon (AQUA) SZA (AQUA ) Date (METOP-B) Time (METOP-B) Lat,Lon (METOP-B) SZA (METOP-B ) Distance(km) Time Diff (sec)
1 02/10/2019 16:08:04 -73.86, 112.14 91.73 02/10/2019 16:07:13 -73.84, 112.19 91.75 3.26 51
2 02/10/2019 16:57:32 73.89, -80.29 88.30 02/10/2019 16:57:51 73.91, -80.29 88.31 2.04 19
3 02/13/2019 11:42:18 -73.82, 178.67 92.71 02/13/2019 11:41:36 -73.85, 178.63 92.67 3.27 42
4 02/13/2019 12:31:47 73.91, -13.90 87.39 02/13/2019 12:32:14 73.92, -13.85 87.39 1.85 27
5 02/16/2019 07:16:34 -73.84,-114.93 93.65 02/16/2019 07:16:00 -73.86,-114.93 93.62 2.41 34
6 02/16/2019 08:06:03 73.94, 52.49 86.45 02/16/2019 08:06:38 73.94, 52.59 86.44 3.11 35
7 02/19/2019 02:50:50 -73.86, -48.54 94.61 02/19/2019 02:50:24 -73.87, -48.50 94.60 1.64 26
8 02/19/2019 03:40:18 73.92, 118.97 85.44 02/19/2019 03:41:02 73.95, 119.02 85.46 3.30 44
9 02/21/2019 21:35:25 73.18,-148.28 83.65 02/21/2019 21:34:20 73.13,-151.13 83.75 91.93 65
10 02/21/2019 22:25:05 -73.89, 17.83 95.59 02/21/2019 22:24:47 -73.88, 17.93 95.60 3.35 18
11 02/21/2019 23:14:33 73.96,-174.67 84.47 02/21/2019 23:15:25 73.96,-174.55 84.45 3.60 52




NCC Satellite Simultaneous Nadir Overpasses (SNOs) Prediction Service
